Location: Unspecified
(0.0000°N, 0.0000°E)
Time: 20:36:26
(UTC+00:00)

Envisat - Pass Details

Date: 10 February 2018
Orbit: 764 x 766 km, 98.2° (Epoch: 23 February)

Event Time Altitude Azimuth Distance (km) Brightness Sun altitude
Rises 20:27:20 0° 183° (S) 3,232 6.5 -32.1°
Reaches altitude 10° 20:29:48 10° 192° (SSW) 2,303 5.7 -32.7°
Maximum altitude 20:34:26 37° 258° (WSW) 1,185 4.3 -33.8°
Enters shadow 20:35:45 31° 290° (WNW) 1,310 4.5 -34.2°
